Temperature
18 18 18 18 18 17 17 16 16 16 16 16 16 16 15 15 15 15 15 15 14 14 14 14 14 14 13 13 14 14 14 14 15 15 15 15 14 14 14 14 13 12 12
19 18 18 18 18 17 17 17 16 16 16 16 16 15 15 15 15 15 15 14 14 14 14 14 14 14 13 13 14 14 14 14 14 14 14 14 14 14 14 14 13 13 12
19 18 18 18 18 17 17 17 17 16 16 16 16 15 15 15 15 15 15 14 14 14 14 14 14 13 13 14 14 14 14 14 13 14 13 14 14 14 14 13 13 13 12
19 18 18 18 18 18 17 17 17 17 16 16 16 15 15 15 15 15 15 14 14 14 14 14 13 13 13 14 14 14 13 13 13 13 13 13 13 13 13 13 13 13 13
19 19 18 18 19 18 18 18 18 17 16 16 16 15 15 15 15 15 15 15 14 14 14 14 13 14 14 14 14 13 13 13 13 13 13 13 13 13 13 13 13 13 13
19 19 18 18 19 19 19 18 18 17 17 16 15 15 15 15 15 15 15 15 14 14 14 14 14 14 14 14 14 13 13 13 13 13 12 12 12 13 13 13 13 13 13
19 18 18 18 18 19 19 19 18 18 17 16 16 15 15 15 15 15 15 15 15 14 14 14 14 14 14 14 14 13 13 12 13 13 12 12 12 12 12 13 12 13 13
19 18 18 17 18 18 18 19 19 18 17 16 16 15 15 14 14 15 15 15 15 15 15 14 14 14 14 14 13 13 13 13 13 12 12 12 12 12 12 12 12 12 12
19 18 18 17 17 18 18 18 19 18 18 17 16 15 15 14 14 14 15 15 15 15 15 14 14 14 14 14 13 13 13 13 13 12 12 12 12 12 12 12 12 12 12
18 18 18 17 17 17 17 18 18 18 18 17 16 16 15 14 14 14 14 14 14 14 14 14 14 14 14 14 13 13 13 13 13 12 12 12 12 12 12 12 12 12 12
17 17 17 17 17 17 17 17 17 17 17 17 16 16 15 15 14 14 14 14 14 14 14 14 14 14 14 13 13 13 13 13 13 12 12 12 12 12 12 11 11 11 11
17 17 17 17 17 17 17 17 17 17 17 17 17 16 15 15 14 14 14 14 14 14 14 14 13 13 13 13 13 13 13 13 13 12 12 12 12 11 11 11 10 10 10
18 18 18 17 17 17 17 17 17 17 17 17 16 16 15 15 14 14 14 14 14 14 14 13 13 13 13 13 13 13 13 13 13 12 12 12 11 11 10 10 10 9 9
19 18 18 17 17 17 17 17 16 16 17 17 16 16 15 15 15 14 14 14 14 14 13 13 13 13 13 13 13 13 13 13 13 12 12 11 10 10 10 9 9 9 9
19 19 18 18 17 17 17 16 16 16 16 16 16 16 15 15 15 14 14 13 13 13 13 13 13 13 13 12 12 13 13 13 12 12 11 11 10 10 9 9 8 8 8
18 18 18 18 18 17 17 17 17 16 16 16 16 16 15 15 15 14 13 13 13 13 13 13 12 12 12 12 12 12 12 12 12 12 11 10 10 9 9 8 8 8 8
18 18 18 18 18 18 18 17 17 16 16 16 15 15 15 15 14 14 13 13 13 12 12 12 12 12 12 12 12 12 12 12 12 12 11 10 9 9 8 8 8 8 8
19 18 18 18 18 18 18 18 17 17 16 16 15 15 15 14 14 13 13 13 13 12 12 12 12 12 12 12 12 12 12 12 12 11 11 10 9 8 8 8 8 7 7
19 19 18 18 18 18 18 18 17 17 17 16 15 15 15 14 14 13 13 13 12 12 12 12 12 12 12 12 12 12 12 12 11 11 10 9 9 8 8 7 7 7 7
18 18 18 18 18 18 18 17 17 17 17 16 15 15 15 14 13 13 13 12 12 12 12 12 12 12 12 12 12 12 11 11 11 10 10 9 8 8 7 7 7 6 6
18 18 18 18 18 17 17 17 17 17 16 16 16 15 15 14 14 13 13 12 12 12 12 12 12 12 12 12 11 11 11 10 10 9 9 8 7 7 6 6 6 5 5
17 17 17 18 18 17 17 17 17 17 17 17 16 16 15 14 14 13 13 13 12 12 12 12 12 12 11 11 11 11 11 10 9 9 8 7 7 6 6 5 5 5 4
17 17 17 17 17 17 17 17 17 17 16 16 16 16 15 15 14 14 13 13 12 12 12 12 12 11 11 11 11 11 11 10 9 8 8 7 6 6 5 5 4 4 4
16 16 16 17 17 17 17 16 16 17 16 17 16 16 16 15 15 14 14 13 13 12 12 12 11 11 11 11 11 10 10 10 9 8 7 7 6 5 5 4 4 3 3
16 16 16 16 16 16 16 16 16 16 17 17 17 16 16 15 15 14 14 13 12 12 12 11 11 11 11 10 10 10 9 9 8 7 7 6 5 5 4 4 4 3 3
16 16 16 16 16 16 16 16 16 16 16 16 16 16 16 15 15 14 13 13 12 12 11 11 10 10 10 10 9 9 8 8 7 6 5 5 5 5 4 4 3 3 2
Wind_Speed
8 13 21 21 20 19 19 19 20 20 20 19 19 17 16 14 12 11 10 10 9 10 11 13 14 16 15 14 13 12 11 11 11 10 9 9 9 9 9 9 8 6 7
11 17 22 21 20 20 19 19 19 19 19 19 18 17 16 14 13 12 11 11 11 12 13 14 15 15 14 13 12 10 10 10 8 7 5 4 4 6 7 7 6 5 5
16 17 21 21 21 20 20 19 19 19 19 19 18 17 15 14 13 12 12 12 12 13 13 14 15 14 13 12 10 9 9 8 6 5 3 3 2 4 6 5 5 4 4
17 18 19 21 21 21 20 19 19 19 19 19 18 17 16 14 13 12 12 12 12 12 13 14 13 13 12 10 9 8 7 6 7 6 4 6 3 5 5 4 4 3 2
15 17 19 22 21 21 20 19 19 19 19 19 18 17 16 14 13 13 12 12 12 12 12 12 12 11 10 9 8 6 5 6 8 6 6 8 3 5 5 4 3 2 2
12 16 19 21 21 20 19 19 18 19 19 19 19 17 16 14 14 13 13 12 12 11 11 11 10 9 8 7 6 5 4 7 8 6 9 7 4 5 6 6 5 4 3
13 15 19 20 20 20 19 19 19 19 20 19 19 17 16 15 14 14 13 12 11 11 10 10 9 8 7 6 4 4 5 8 8 7 7 5 4 7 7 8 9 9 9
17 15 17 20 19 19 19 19 19 20 20 19 18 17 16 15 15 14 13 12 11 10 10 9 8 8 6 5 3 3 6 8 7 8 6 5 7 8 8 9 10 11 12
15 14 14 16 17 18 18 18 19 19 20 19 19 17 15 15 15 15 14 12 11 10 9 8 8 7 6 4 3 4 6 6 7 8 6 6 7 8 9 10 11 13 15
12 13 12 14 15 15 16 17 18 18 19 19 18 17 16 15 16 15 14 12 11 10 9 8 7 6 5 4 4 5 7 9 10 9 6 7 9 10 11 11 12 13 14
12 11 10 11 12 14 14 16 17 17 18 17 17 18 16 13 14 15 15 13 11 10 9 8 7 6 4 3 5 7 10 11 11 8 6 9 10 11 11 12 12 12 12
15 13 11 12 11 13 13 13 14 15 15 15 15 16 14 13 13 14 15 15 13 11 9 7 6 5 3 3 5 8 10 11 10 7 8 11 11 12 12 13 12 12 12
16 15 15 14 13 13 9 11 11 11 13 14 16 16 14 12 11 12 12 12 12 10 8 5 4 4 3 4 6 8 9 10 9 8 9 12 12 12 12 12 12 11 11
15 17 16 16 14 13 12 10 11 10 10 11 14 16 12 8 8 9 10 11 10 9 7 5 5 5 6 6 8 9 9 9 9 9 11 13 13 12 11 11 10 10 10
15 17 17 17 16 14 11 10 11 10 11 13 14 15 14 8 6 8 8 10 10 9 7 6 6 6 6 7 7 8 8 9 9 10 12 14 14 12 11 10 9 9 9
12 15 16 18 18 16 14 12 10 12 13 14 14 16 17 14 10 8 6 7 9 10 9 8 7 6 5 5 5 7 7 9 10 11 12 13 13 12 10 8 8 8 9
11 13 15 18 18 18 16 15 11 13 14 12 14 17 18 17 14 10 6 6 8 12 11 9 8 6 4 4 4 4 5 7 9 10 11 12 12 11 9 7 7 8 9
10 11 15 16 17 18 17 15 11 12 12 12 14 16 19 19 17 12 7 7 11 13 10 6 5 4 4 3 3 2 3 5 8 10 11 11 11 10 8 7 6 6 8
10 11 13 14 17 18 17 14 12 10 11 12 14 14 17 19 18 13 8 8 13 9 6 6 4 4 3 3 2 2 2 2 5 8 8 10 10 9 8 6 5 4 6
11 10 12 13 15 16 14 11 9 10 10 9 11 13 16 17 18 14 9 10 12 7 6 6 5 3 3 3 2 2 1 1 3 4 6 8 9 9 8 6 4 2 3
9 9 11 13 14 13 11 12 12 12 11 10 9 13 16 16 17 14 9 9 9 8 8 8 5 4 2 2 3 2 2 2 1 2 3 4 5 6 7 6 4 2 2
9 9 9 11 12 13 14 13 11 11 8 9 8 9 15 16 17 15 13 12 10 8 9 8 6 4 2 2 3 3 0 2 2 0 1 2 2 3 3 3 2 3 4
10 10 9 10 12 13 12 8 4 3 3 3 6 8 9 14 16 14 13 12 11 11 10 9 7 7 5 2 2 4 4 4 2 2 1 1 1 2 1 0 2 4 6
10 9 9 9 10 10 11 10 12 11 9 10 9 8 8 10 12 14 14 13 12 10 11 9 7 5 6 4 2 2 2 3 3 1 2 2 1 1 0 1 4 7 9
7 7 7 7 8 9 10 14 15 12 8 6 6 9 8 7 9 11 12 11 11 10 10 9 7 7 4 5 4 3 2 2 2 2 2 3 3 2 2 3 5 6 8
3 3 4 4 6 7 10 13 15 14 12 11 10 10 8 6 6 8 10 9 9 9 10 9 8 8 5 6 4 3 3 3 2 3 3 3 3 4 3 4 3 4 6
Wind_Direction
159 164 153 148 143 140 138 136 135 134 132 129 126 122 119 117 116 115 112 111 112 119 127 126 123 116 109 103 96 90 88 85 82 79 75 74 78 82 81 79 76 71 79
150 159 153 149 145 141 139 137 136 136 134 132 130 127 124 122 122 121 115 112 109 111 116 118 116 110 107 102 96 93 91 87 82 78 78 74 66 79 83 85 85 83 85
147 155 154 150 146 143 141 140 140 140 138 136 133 130 127 125 124 123 116 112 107 105 109 111 109 106 105 103 100 98 94 85 71 58 94 145 113 86 85 85 83 82 80
148 152 154 151 148 146 145 144 145 145 143 140 137 134 130 127 126 126 121 117 113 108 107 108 108 108 108 107 106 103 91 69 47 45 95 155 159 89 86 84 70 66 56
146 151 157 153 151 149 149 150 150 150 147 143 140 137 132 130 129 129 125 122 119 115 112 111 111 111 112 113 110 102 77 45 35 52 120 149 143 85 76 72 65 54 33
142 149 158 155 154 153 153 154 155 155 152 148 145 141 137 134 133 132 130 128 125 122 118 117 117 117 116 115 110 93 52 32 37 82 129 136 115 80 68 59 56 51 39
146 151 160 158 158 157 157 157 159 159 156 153 151 148 145 141 139 138 138 137 134 130 127 125 124 124 122 117 105 72 37 31 51 102 127 121 96 76 66 60 56 55 53
152 155 162 162 161 161 160 160 161 161 160 158 158 156 154 151 149 148 148 147 144 139 135 133 132 131 128 121 97 54 37 44 68 102 107 95 86 78 70 63 57 58 60
153 157 160 163 164 164 164 164 165 165 165 164 164 163 160 159 158 158 157 157 154 148 145 144 142 140 137 126 90 48 42 66 107 122 105 89 86 83 78 73 71 70 67
157 161 161 162 165 166 168 168 168 168 168 168 167 163 162 164 167 168 166 167 163 159 156 155 151 148 142 122 79 57 68 94 107 109 102 95 89 88 85 80 76 72 68
167 168 165 163 165 167 170 173 170 170 171 170 167 164 164 168 171 172 173 174 173 171 168 164 159 154 141 102 74 76 89 105 107 103 102 100 95 92 87 82 77 73 67
178 179 175 172 171 170 175 174 172 173 175 172 170 170 170 172 173 175 179 180 180 179 178 175 165 157 138 91 79 90 98 111 104 101 106 104 99 95 89 82 76 70 63
181 183 184 181 178 177 177 172 176 177 178 179 179 180 178 177 179 179 179 183 183 181 179 172 146 140 131 107 95 95 104 109 104 97 104 105 103 99 92 84 75 66 58
183 190 187 186 183 183 181 180 183 183 185 187 191 190 182 179 181 180 182 183 181 180 175 163 146 133 123 113 105 99 102 111 109 101 102 107 105 102 94 85 74 63 52
190 192 191 189 188 186 183 184 187 190 192 195 196 198 190 182 182 184 187 184 186 183 175 161 146 132 120 105 99 103 106 119 118 108 106 107 107 104 96 85 72 58 45
206 199 193 193 192 188 188 189 189 192 195 196 200 199 193 188 185 184 183 183 185 181 172 158 147 132 114 102 90 101 113 125 128 121 116 113 112 109 101 87 70 53 37
213 207 197 197 194 192 193 192 191 192 193 196 200 201 196 192 187 183 177 177 177 168 153 138 126 114 102 92 86 96 116 131 142 137 130 124 121 117 111 95 74 52 35
213 210 205 202 197 197 196 195 194 192 192 196 197 198 196 193 185 177 172 172 164 154 144 134 128 106 96 96 98 89 111 136 149 151 146 143 140 136 128 112 86 58 35
222 210 207 205 199 199 199 196 195 190 192 193 193 194 193 188 181 172 168 163 156 146 141 140 124 121 119 114 119 108 110 139 154 160 163 166 165 159 151 137 111 74 35
237 217 210 209 205 202 199 195 192 192 193 191 192 193 186 183 177 168 162 159 154 145 142 135 125 103 114 131 103 78 55 120 152 167 175 180 185 179 168 155 142 103 28
249 234 216 211 210 202 195 194 193 198 196 194 194 189 185 179 174 168 164 160 159 158 156 143 125 117 105 113 101 57 12 25 126 169 178 180 191 186 172 170 178 206 305
242 239 226 216 213 206 203 199 197 195 193 192 189 187 185 179 175 173 167 169 164 153 150 151 138 128 120 115 137 125 70 330 325 72 184 187 184 163 159 178 223 260 284
244 238 233 221 214 211 207 192 161 120 98 156 187 189 188 181 177 174 171 167 166 163 168 164 152 145 147 121 120 150 160 213 252 322 360 97 148 134 106 27 321 314 309
245 244 240 235 224 211 197 187 180 184 187 192 188 183 174 175 175 171 169 167 167 165 164 165 154 147 140 146 123 84 118 143 160 256 323 2 27 134 106 335 330 331 334
245 246 245 244 237 219 200 194 195 197 187 165 155 158 162 164 168 166 167 166 165 162 158 153 145 142 136 144 148 139 114 79 98 155 253 312 330 305 298 306 323 338 351
263 259 257 249 245 225 207 199 199 190 169 159 163 166 162 155 157 162 161 160 158 155 151 146 138 133 125 124 122 124 136 142 163 161 213 260 284 291 298 301 315 345 4
Height
1515 1518 1520 1522 1524 1526 1527 1529 1531 1532 1533 1534 1534 1535 1535 1536 1536 1535 1535 1535 1535 1536 1536 1537 1537 1538 1539 1539 1540 1539 1539 1539 1539 1539 1540 1540 1540 1540 1539 1539 1539 1540 1540
1514 1517 1519 1522 1524 1526 1527 1529 1530 1531 1532 1533 1534 1534 1535 1535 1534 1534 1535 1535 1536 1536 1537 1537 1538 1539 1540 1540 1540 1540 1539 1539 1540 1540 1540 1540 1540 1540 1540 1540 1540 1540 1540
1515 1517 1519 1522 1524 1526 1527 1529 1530 1531 1532 1533 1533 1534 1534 1534 1534 1534 1535 1535 1536 1537 1538 1538 1539 1540 1540 1541 1540 1540 1540 1540 1540 1540 1540 1541 1540 1541 1541 1541 1541 1541 1541
1516 1517 1519 1522 1524 1525 1527 1528 1530 1531 1532 1533 1533 1534 1534 1535 1535 1535 1535 1536 1537 1537 1538 1539 1540 1540 1541 1541 1541 1541 1541 1541 1541 1541 1541 1541 1541 1542 1542 1542 1542 1542 1542
1516 1518 1519 1522 1524 1525 1527 1528 1529 1530 1532 1532 1533 1534 1535 1535 1535 1535 1536 1536 1537 1538 1539 1540 1540 1541 1541 1541 1541 1542 1542 1542 1542 1542 1542 1543 1543 1543 1543 1543 1543 1543 1542
1515 1517 1519 1522 1524 1525 1527 1528 1529 1530 1531 1532 1534 1535 1535 1536 1536 1536 1537 1537 1538 1539 1540 1540 1541 1541 1542 1542 1543 1543 1543 1543 1543 1543 1543 1544 1544 1544 1544 1544 1544 1543 1543
1515 1517 1519 1522 1524 1525 1527 1528 1529 1530 1531 1532 1534 1535 1536 1536 1537 1537 1538 1538 1539 1539 1540 1541 1542 1542 1543 1543 1544 1544 1544 1544 1544 1544 1544 1545 1545 1545 1545 1544 1544 1543 1543
1515 1517 1519 1521 1523 1525 1526 1527 1529 1530 1531 1532 1534 1535 1536 1537 1537 1538 1539 1539 1540 1540 1541 1542 1543 1543 1544 1544 1545 1545 1545 1544 1544 1544 1544 1545 1545 1545 1544 1544 1543 1543 1542
1515 1517 1519 1521 1523 1525 1526 1527 1528 1529 1531 1532 1533 1534 1536 1537 1538 1539 1539 1540 1541 1541 1542 1543 1543 1544 1544 1545 1545 1545 1545 1544 1544 1544 1544 1545 1545 1544 1544 1543 1543 1542 1542
1515 1517 1518 1520 1522 1524 1525 1527 1528 1529 1530 1531 1533 1534 1535 1536 1537 1539 1540 1540 1541 1542 1542 1543 1544 1544 1544 1544 1545 1544 1544 1544 1544 1544 1544 1544 1544 1543 1543 1542 1542 1541 1540
1514 1516 1517 1519 1521 1522 1524 1525 1527 1528 1529 1531 1532 1533 1534 1535 1537 1538 1539 1540 1541 1542 1542 1543 1543 1544 1544 1544 1544 1544 1544 1544 1544 1544 1543 1543 1543 1542 1541 1541 1540 1539 1539
1512 1514 1516 1517 1519 1521 1522 1524 1525 1526 1528 1529 1530 1532 1533 1534 1536 1537 1538 1539 1540 1541 1542 1542 1543 1543 1544 1544 1543 1543 1543 1543 1543 1543 1542 1542 1541 1541 1540 1539 1538 1537 1537
1510 1512 1514 1515 1517 1519 1520 1522 1523 1524 1526 1527 1529 1530 1531 1532 1534 1535 1536 1538 1539 1540 1541 1541 1542 1542 1543 1543 1543 1542 1542 1542 1542 1541 1541 1540 1540 1539 1538 1537 1536 1536 1535
1507 1509 1511 1513 1514 1516 1518 1519 1521 1522 1524 1525 1527 1528 1529 1530 1532 1533 1534 1536 1537 1538 1539 1540 1541 1541 1542 1542 1541 1541 1541 1541 1540 1540 1539 1538 1538 1537 1536 1535 1535 1534 1533
1505 1506 1508 1510 1511 1513 1515 1517 1518 1519 1521 1523 1524 1526 1527 1528 1530 1532 1533 1534 1536 1537 1538 1539 1539 1540 1540 1540 1540 1540 1540 1539 1539 1538 1537 1537 1536 1535 1535 1534 1533 1532 1532
1502 1503 1505 1506 1508 1510 1511 1513 1515 1517 1518 1520 1521 1523 1524 1526 1528 1529 1531 1532 1533 1535 1536 1537 1538 1539 1539 1539 1539 1538 1538 1537 1537 1536 1535 1535 1534 1534 1533 1532 1531 1531 1530
1499 1500 1501 1503 1504 1506 1507 1509 1511 1513 1515 1517 1518 1520 1522 1523 1525 1527 1528 1530 1531 1533 1534 1535 1536 1537 1538 1538 1537 1537 1536 1536 1535 1534 1533 1533 1533 1532 1531 1531 1530 1529 1528
1494 1496 1497 1499 1500 1502 1503 1505 1507 1509 1511 1513 1515 1517 1518 1520 1522 1524 1526 1527 1529 1531 1532 1533 1535 1535 1536 1536 1536 1535 1534 1534 1533 1532 1531 1531 1531 1530 1530 1529 1528 1527 1526
1488 1490 1492 1494 1495 1497 1499 1501 1503 1505 1507 1509 1511 1513 1515 1517 1519 1521 1523 1525 1527 1528 1530 1532 1533 1534 1534 1534 1534 1533 1532 1531 1530 1530 1529 1529 1529 1528 1528 1527 1526 1525 1523
1482 1484 1485 1488 1490 1492 1494 1497 1499 1500 1502 1504 1506 1508 1511 1513 1515 1518 1520 1522 1524 1526 1527 1529 1530 1531 1532 1532 1532 1531 1530 1529 1528 1528 1527 1527 1526 1526 1525 1524 1523 1522 1520
1474 1476 1478 1481 1483 1486 1488 1490 1492 1494 1496 1499 1501 1504 1507 1509 1511 1514 1516 1518 1520 1522 1524 1526 1527 1528 1529 1529 1529 1529 1528 1527 1526 1525 1525 1525 1524 1523 1522 1521 1520 1518 1517
1467 1469 1471 1473 1476 1478 1480 1482 1485 1487 1490 1493 1496 1499 1502 1504 1506 1508 1511 1513 1516 1518 1520 1522 1523 1524 1525 1526 1526 1526 1525 1525 1523 1523 1522 1522 1521 1521 1519 1518 1517 1515 1513
1461 1463 1464 1466 1468 1470 1473 1476 1478 1481 1483 1486 1489 1492 1495 1498 1501 1503 1505 1508 1511 1513 1515 1517 1519 1521 1522 1522 1522 1523 1521 1520 1520 1520 1518 1518 1518 1517 1516 1515 1513 1511 1508
1454 1456 1458 1459 1461 1463 1466 1467 1469 1471 1474 1477 1481 1485 1489 1492 1495 1498 1500 1503 1506 1508 1511 1513 1515 1516 1517 1518 1518 1518 1518 1517 1517 1516 1515 1515 1514 1514 1513 1512 1510 1507 1504
1449 1450 1451 1453 1454 1456 1458 1459 1462 1465 1467 1471 1475 1478 1482 1485 1489 1492 1495 1497 1500 1503 1505 1508 1510 1512 1513 1513 1514 1514 1513 1513 1512 1512 1511 1511 1511 1510 1509 1508 1505 1502 1499
1444 1445 1446 1447 1448 1449 1450 1452 1454 1457 1460 1464 1467 1471 1475 1479 1482 1485 1488 1491 1494 1497 1500 1503 1505 1507 1508 1508 1509 1509 1509 1509 1508 1507 1506 1505 1505 1504 1504 1502 1500 1497 1494